Location: *
(51.4660°N, 0.3360°W)
Time: 02:01:33
(UTC+00:00)

Meteor 2-17 Rocket - Pass Details

Date: 19 September 2019
Orbit: 934 x 957 km, 82.5° (Epoch: 22 October)

Event Time Altitude Azimuth Distance (km) Brightness Sun altitude
Rises 19:17:52 0° 350° (N) 3,624 7.9 -11.6°
Reaches altitude 10° 19:20:25 10° 355° (N) 2,672 7.1 -12.0°
Maximum altitude 19:26:27 61° 75° (ENE) 1,062 4.5 -12.9°
Drops below altitude 10° 19:32:25 10° 156° (SSE) 2,642 6.4 -13.8°
Enters shadow 19:33:19 - 157° (SSE) 2,975 6.6 -13.9°
